EFW8DD EGKK-LOWS

Flight info

Callsign EFW8DD
Flight time 1h 26m
Altitude 37000
Route MIMFO Y312 DVR UL9 KONAN UL607 KOK DCT PITES DCT KRH DCT UTABA L607 XEBIX N871 BADVI L725 UNKEN UNKEN2R
Aircraft A320/M-SDE3FGHIRWY/LB1

Departure

Time 2026-04-15 12:57
Airport London Gatwick Airport (EGKK)

Arrival

Time 2026-04-15 14:23
Airport Salzburg Airport (LOWS)
Time Latitude Longitude Altitude Speed Heading
2026-04-15 12:29 51.15720 -0.18399 213 ft 0 kts 347°
2026-04-15 12:45 51.15704 -0.18393 215 ft 4 kts 347°
2026-04-15 12:45 51.15686 -0.18387 216 ft 4 kts 347°
2026-04-15 12:46 51.15661 -0.18379 216 ft 4 kts
2026-04-15 12:46 51.15640 -0.18393 216 ft 4 kts 66°
2026-04-15 12:46 51.15635 -0.18425 208 ft 3 kts 77°
2026-04-15 12:46 51.15634 -0.18432 210 ft 0 kts 77°
2026-04-15 12:49 51.15634 -0.18431 209 ft 0 kts 77°
2026-04-15 12:49 51.15636 -0.18412 216 ft 3 kts 77°
2026-04-15 12:49 51.15643 -0.18366 213 ft 5 kts 77°
2026-04-15 12:50 51.15650 -0.18295 209 ft 7 kts 92°
2026-04-15 12:50 51.15613 -0.18233 204 ft 9 kts 163°
2026-04-15 12:50 51.15541 -0.18207 204 ft 12 kts 168°
2026-04-15 12:50 51.15474 -0.18180 212 ft 9 kts 158°
2026-04-15 12:51 51.15404 -0.18150 206 ft 12 kts 167°
2026-04-15 12:51 51.15318 -0.18120 204 ft 14 kts 167°
2026-04-15 12:51 51.15280 -0.18107 209 ft 0 kts 168°
2026-04-15 12:52 51.15276 -0.18106 208 ft 2 kts 168°
2026-04-15 12:52 51.15237 -0.18092 204 ft 8 kts 168°
2026-04-15 12:52 51.15215 -0.18033 204 ft 9 kts 68°
2026-04-15 12:53 51.15235 -0.17931 207 ft 11 kts 77°
2026-04-15 12:53 51.15251 -0.17807 208 ft 12 kts 78°
2026-04-15 12:53 51.15271 -0.17662 204 ft 15 kts 77°
2026-04-15 12:53 51.15292 -0.17506 210 ft 10 kts 78°
2026-04-15 12:54 51.15300 -0.17391 212 ft 11 kts 99°
2026-04-15 12:54 51.15244 -0.17297 214 ft 13 kts 115°
2026-04-15 12:54 51.15258 -0.17146 204 ft 15 kts 77°
2026-04-15 12:54 51.15281 -0.16974 204 ft 16 kts 78°
2026-04-15 12:55 51.15290 -0.16875 204 ft 9 kts 97°
2026-04-15 12:55 51.15240 -0.16812 215 ft 11 kts 167°
2026-04-15 12:55 51.15158 -0.16784 212 ft 12 kts 169°
2026-04-15 12:55 51.15119 -0.16818 206 ft 8 kts 255°
2026-04-15 12:56 51.15100 -0.16957 209 ft 30 kts 258°
2026-04-15 12:56 51.15005 -0.17646 209 ft 94 kts 257°
2026-04-15 12:56 51.14825 -0.18950 208 ft 144 kts 257°
2026-04-15 12:56 51.14592 -0.20629 599 ft 155 kts 252°
2026-04-15 12:57 51.14379 -0.22267 1376 ft 151 kts 251°
2026-04-15 12:57 51.14139 -0.24015 1732 ft 174 kts 251°
2026-04-15 12:57 51.13857 -0.26029 2083 ft 198 kts 253°
2026-04-15 12:57 51.13726 -0.28271 2818 ft 211 kts 272°
2026-04-15 12:58 51.14306 -0.30488 3636 ft 229 kts 300°
2026-04-15 12:58 51.15622 -0.32039 3921 ft 248 kts 336°
2026-04-15 12:58 51.17372 -0.32090 4000 ft 262 kts 15°
2026-04-15 12:58 51.18867 -0.30460 4008 ft 264 kts 56°
2026-04-15 12:59 51.19892 -0.24974 4012 ft 264 kts 88°
2026-04-15 12:59 51.19825 -0.21940 4163 ft 283 kts 104°
2026-04-15 12:59 51.19707 -0.18772 5077 ft 288 kts 96°
2026-04-15 13:00 51.19667 -0.15564 6020 ft 291 kts 97°
2026-04-15 13:00 51.19624 -0.12326 6918 ft 293 kts 97°
2026-04-15 13:00 51.19575 -0.09060 7751 ft 297 kts 97°
2026-04-15 13:00 51.19521 -0.05752 8563 ft 300 kts 97°
2026-04-15 13:01 51.19464 -0.02449 9387 ft 304 kts 98°
2026-04-15 13:01 51.19405 0.00944 10015 ft 309 kts 98°
2026-04-15 13:01 51.19335 0.04497 10271 ft 331 kts 98°
2026-04-15 13:01 51.19255 0.08296 10424 ft 355 kts 97°
2026-04-15 13:02 51.19168 0.12343 10589 ft 375 kts 97°
2026-04-15 13:02 51.19085 0.16545 11095 ft 382 kts 97°
2026-04-15 13:02 51.19012 0.20806 11698 ft 386 kts 97°
2026-04-15 13:02 51.18940 0.25097 12319 ft 389 kts 97°
2026-04-15 13:03 51.18863 0.29434 12962 ft 392 kts 97°
2026-04-15 13:03 51.18779 0.33795 13618 ft 396 kts 97°
2026-04-15 13:03 51.18690 0.38200 14198 ft 399 kts 97°
2026-04-15 13:03 51.18595 0.42637 14774 ft 402 kts 97°
2026-04-15 13:04 51.18498 0.47114 15339 ft 406 kts 98°
2026-04-15 13:04 51.18400 0.51625 15901 ft 409 kts 97°
2026-04-15 13:04 51.18301 0.56171 16481 ft 412 kts 97°
2026-04-15 13:04 51.18200 0.60752 17103 ft 416 kts 97°
2026-04-15 13:05 51.18097 0.65383 17741 ft 420 kts 97°
2026-04-15 13:05 51.17989 0.70063 18344 ft 424 kts 97°
2026-04-15 13:05 51.17877 0.74772 18922 ft 427 kts 97°
2026-04-15 13:05 51.17760 0.79474 19497 ft 430 kts 98°
2026-04-15 13:06 51.17637 0.84310 20076 ft 433 kts 98°
2026-04-15 13:06 51.17519 0.89067 20611 ft 437 kts 98°
2026-04-15 13:06 51.17402 0.93921 21208 ft 440 kts 98°
2026-04-15 13:06 51.17283 0.98803 21638 ft 442 kts 97°
2026-04-15 13:07 51.17155 1.03723 22096 ft 445 kts 98°
2026-04-15 13:07 51.17024 1.08662 22541 ft 448 kts 98°
2026-04-15 13:07 51.16889 1.13641 22969 ft 450 kts 98°
2026-04-15 13:07 51.16752 1.18640 23385 ft 453 kts 98°
2026-04-15 13:08 51.16610 1.23659 23767 ft 455 kts 98°
2026-04-15 13:08 51.16464 1.28716 24105 ft 458 kts 98°
2026-04-15 13:08 51.16318 1.33787 24434 ft 460 kts 98°
2026-04-15 13:08 51.16159 1.38892 24770 ft 462 kts 99°
2026-04-15 13:09 51.15950 1.44005 25071 ft 463 kts 99°
2026-04-15 13:09 51.15703 1.49072 25377 ft 465 kts 100°
2026-04-15 13:09 51.15432 1.54224 25692 ft 468 kts 100°
2026-04-15 13:09 51.15152 1.59466 26011 ft 470 kts 100°
2026-04-15 13:10 51.14879 1.64604 26320 ft 473 kts 100°
2026-04-15 13:10 51.14608 1.69838 26627 ft 475 kts 100°
2026-04-15 13:10 51.14344 1.75092 26937 ft 478 kts 100°
2026-04-15 13:10 51.14080 1.80378 27265 ft 479 kts 100°
2026-04-15 13:11 51.13814 1.85669 27707 ft 478 kts 100°
2026-04-15 13:11 51.13546 1.90946 28113 ft 477 kts 100°
2026-04-15 13:11 51.13276 1.96206 28539 ft 477 kts 100°
2026-04-15 13:11 51.13003 2.01462 28981 ft 476 kts 100°
2026-04-15 13:12 51.12728 2.06715 29429 ft 476 kts 100°
2026-04-15 13:12 51.12452 2.11955 29877 ft 475 kts 100°
2026-04-15 13:12 51.12172 2.17195 30311 ft 474 kts 101°
2026-04-15 13:12 51.11891 2.22354 30692 ft 474 kts 101°
2026-04-15 13:13 51.11603 2.27578 31083 ft 473 kts 101°
2026-04-15 13:13 51.11314 2.32790 31470 ft 472 kts 101°
2026-04-15 13:13 51.11025 2.37996 31842 ft 472 kts 101°
2026-04-15 13:13 51.10735 2.43209 32193 ft 473 kts 100°
2026-04-15 13:14 51.10439 2.48431 32569 ft 473 kts 101°
2026-04-15 13:14 51.10138 2.53639 32949 ft 472 kts 101°
2026-04-15 13:14 51.09834 2.58845 33340 ft 472 kts 102°
2026-04-15 13:14 51.09258 2.63932 33727 ft 464 kts 111°
2026-04-15 13:15 51.08236 2.68753 34122 ft 456 kts 120°
2026-04-15 13:15 51.06837 2.73239 34451 ft 451 kts 124°
2026-04-15 13:15 51.05377 2.77647 34792 ft 450 kts 124°
2026-04-15 13:15 51.03924 2.82054 35140 ft 450 kts 124°
2026-04-15 13:16 51.02477 2.86452 35418 ft 450 kts 123°
2026-04-15 13:16 51.01043 2.90804 35673 ft 450 kts 123°
2026-04-15 13:16 50.99589 2.95201 35960 ft 450 kts 123°
2026-04-15 13:16 50.98133 2.99595 36261 ft 449 kts 123°
2026-04-15 13:17 50.96676 3.03988 36564 ft 449 kts 123°
2026-04-15 13:17 50.95222 3.08364 36864 ft 448 kts 123°
2026-04-15 13:17 50.93766 3.12741 37089 ft 448 kts 123°
2026-04-15 13:17 50.92309 3.17117 37141 ft 452 kts 123°
2026-04-15 13:18 50.89335 3.26004 37139 ft 456 kts 123°
2026-04-15 13:18 50.86354 3.34877 37142 ft 459 kts 123°
2026-04-15 13:19 50.83366 3.43762 37138 ft 460 kts 123°
2026-04-15 13:19 50.80359 3.52689 37145 ft 460 kts 123°
2026-04-15 13:20 50.77332 3.61604 37155 ft 460 kts 123°
2026-04-15 13:20 50.74290 3.70513 37158 ft 461 kts 123°
2026-04-15 13:21 50.71249 3.79422 37139 ft 462 kts 122°
2026-04-15 13:21 50.68189 3.88340 37140 ft 463 kts 122°
2026-04-15 13:22 50.65129 3.97240 37149 ft 464 kts 122°
2026-04-15 13:22 50.62045 4.06200 37165 ft 465 kts 123°
2026-04-15 13:23 50.58950 4.15150 37186 ft 465 kts 123°
2026-04-15 13:23 50.55847 4.24086 37179 ft 465 kts 123°
2026-04-15 13:24 50.52731 4.33000 37196 ft 465 kts 123°
2026-04-15 13:24 50.49625 4.41861 37200 ft 465 kts 123°
2026-04-15 13:25 50.46504 4.50758 37204 ft 465 kts 123°
2026-04-15 13:25 50.43371 4.59652 37205 ft 466 kts 123°
2026-04-15 13:26 50.40221 4.68525 37192 ft 466 kts 123°
2026-04-15 13:26 50.37056 4.77411 37176 ft 467 kts 123°
2026-04-15 13:27 50.33890 4.86318 37185 ft 468 kts 123°
2026-04-15 13:27 50.30720 4.95217 37165 ft 468 kts 122°
2026-04-15 13:28 50.27524 5.04116 37186 ft 469 kts 123°
2026-04-15 13:28 50.24321 5.13002 37172 ft 470 kts 122°
2026-04-15 13:29 50.21122 5.21862 37182 ft 471 kts 122°
2026-04-15 13:29 50.17901 5.30767 37190 ft 471 kts 122°
2026-04-15 13:30 50.14661 5.39664 37204 ft 472 kts 122°
2026-04-15 13:30 50.11412 5.48554 37207 ft 472 kts 122°
2026-04-15 13:31 50.08148 5.57456 37208 ft 473 kts 122°
2026-04-15 13:31 50.04883 5.66359 37197 ft 474 kts 122°
2026-04-15 13:32 50.01609 5.75256 37207 ft 474 kts 122°
2026-04-15 13:32 49.98333 5.84097 37212 ft 474 kts 122°
2026-04-15 13:33 49.95036 5.92976 37214 ft 475 kts 121°
2026-04-15 13:33 49.91735 6.01854 37214 ft 475 kts 121°
2026-04-15 13:34 49.88436 6.10664 37213 ft 475 kts 121°
2026-04-15 13:34 49.85106 6.19529 37212 ft 475 kts 121°
2026-04-15 13:35 49.81779 6.28389 37213 ft 475 kts 122°
2026-04-15 13:35 49.78440 6.37227 37202 ft 475 kts 121°
2026-04-15 13:36 49.75104 6.46047 37203 ft 475 kts 121°
2026-04-15 13:36 49.71791 6.54829 37203 ft 475 kts 120°
2026-04-15 13:37 49.68654 6.63827 37208 ft 476 kts 118°
2026-04-15 13:37 49.65619 6.72923 37205 ft 476 kts 118°
2026-04-15 13:38 49.63072 6.80444 37204 ft 476 kts 117°
2026-04-15 13:38 49.59951 6.89442 37208 ft 476 kts 118°
2026-04-15 13:39 49.56815 6.98407 37202 ft 475 kts 118°
2026-04-15 13:39 49.53681 7.07373 37213 ft 475 kts 118°
2026-04-15 13:40 49.50541 7.16332 37202 ft 475 kts 118°
2026-04-15 13:40 49.47417 7.25227 37217 ft 475 kts 117°
2026-04-15 13:41 49.44268 7.34155 37211 ft 475 kts 117°
2026-04-15 13:41 49.41109 7.43067 37212 ft 475 kts 117°
2026-04-15 13:42 49.37947 7.51961 37189 ft 474 kts 117°
2026-04-15 13:42 49.34788 7.60851 37200 ft 474 kts 117°
2026-04-15 13:43 49.31619 7.69727 37199 ft 475 kts 117°
2026-04-15 13:43 49.28436 7.78589 37202 ft 475 kts 117°
2026-04-15 13:44 49.25242 7.87450 37192 ft 475 kts 117°
2026-04-15 13:44 49.22063 7.96238 37208 ft 475 kts 117°
2026-04-15 13:45 49.18862 8.05068 37224 ft 475 kts 116°
2026-04-15 13:47 49.06008 8.40271 37220 ft 474 kts 117°
2026-04-15 13:47 49.02768 8.49028 37218 ft 474 kts 117°
2026-04-15 13:48 48.99236 8.57526 37220 ft 477 kts 128°
2026-04-15 13:48 48.94377 8.64389 37210 ft 479 kts 141°
2026-04-15 13:49 48.89154 8.70677 37214 ft 479 kts 141°
2026-04-15 13:49 48.83926 8.76973 37233 ft 479 kts 140°
2026-04-15 13:50 48.78733 8.83216 37225 ft 480 kts 140°
2026-04-15 13:50 48.73494 8.89481 37212 ft 480 kts 140°
2026-04-15 13:51 48.68255 8.95739 37210 ft 480 kts 140°
2026-04-15 13:51 48.63009 9.01995 37213 ft 480 kts 140°
2026-04-15 13:52 48.57761 9.08229 37209 ft 480 kts 140°
2026-04-15 13:52 48.52508 9.14443 37233 ft 480 kts 140°
2026-04-15 13:53 48.47245 9.20645 37229 ft 480 kts 140°
2026-04-15 13:53 48.41984 9.26837 37226 ft 480 kts 140°
2026-04-15 13:54 48.36717 9.33032 37219 ft 480 kts 140°
2026-04-15 13:54 48.31480 9.39170 37222 ft 480 kts 140°
2026-04-15 13:55 48.26207 9.45332 37215 ft 480 kts 140°
2026-04-15 13:55 48.21027 9.51687 37233 ft 479 kts 136°
2026-04-15 13:56 48.16028 9.58298 37234 ft 479 kts 135°
2026-04-15 13:56 48.11031 9.64912 37232 ft 479 kts 136°
2026-04-15 13:57 48.05978 9.71439 37229 ft 480 kts 136°
2026-04-15 13:57 48.00913 9.77924 37222 ft 480 kts 136°
2026-04-15 13:58 47.95838 9.84405 37242 ft 480 kts 136°
2026-04-15 13:58 47.90795 9.90850 37236 ft 480 kts 136°
2026-04-15 13:59 47.85712 9.97328 37233 ft 480 kts 136°
2026-04-15 13:59 47.80544 10.03656 37223 ft 481 kts 139°
2026-04-15 14:00 47.75149 10.09585 37217 ft 482 kts 141°
2026-04-15 14:00 47.69703 10.15410 37231 ft 482 kts 140°
2026-04-15 14:01 47.61616 10.24269 37214 ft 481 kts 140°
2026-04-15 14:02 47.56287 10.30161 37203 ft 481 kts 140°
2026-04-15 14:02 47.50908 10.36072 37194 ft 481 kts 140°
2026-04-15 14:03 47.46020 10.42654 37176 ft 470 kts 121°
2026-04-15 14:03 47.44383 10.46770 37203 ft 461 kts 108°
2026-04-15 14:03 47.43381 10.51208 37190 ft 451 kts 96°
2026-04-15 14:03 47.42999 10.55753 37174 ft 441 kts 85°
2026-04-15 14:04 47.43231 10.60223 37164 ft 433 kts 73°
2026-04-15 14:04 47.45061 10.68564 37160 ft 427 kts 65°
2026-04-15 14:05 47.47085 10.76821 37168 ft 428 kts 65°
2026-04-15 14:05 47.49091 10.85117 37167 ft 429 kts 65°
2026-04-15 14:06 47.51093 10.93418 37188 ft 429 kts 66°
2026-04-15 14:06 47.53093 11.01739 37050 ft 429 kts 66°
2026-04-15 14:06 47.54087 11.05882 36598 ft 427 kts 65°
2026-04-15 14:07 47.55084 11.10029 35892 ft 429 kts 65°
2026-04-15 14:07 47.56085 11.14195 35155 ft 430 kts 65°
2026-04-15 14:07 47.57092 11.18380 34348 ft 432 kts 65°
2026-04-15 14:07 47.58106 11.22600 33363 ft 436 kts 65°
2026-04-15 14:08 47.59103 11.26778 32505 ft 437 kts 65°
2026-04-15 14:08 47.60113 11.31039 31574 ft 438 kts 65°
2026-04-15 14:08 47.61124 11.35308 30658 ft 440 kts 66°
2026-04-15 14:08 47.62140 11.39602 29602 ft 443 kts 66°
2026-04-15 14:09 47.63125 11.43931 28524 ft 444 kts 68°
2026-04-15 14:09 47.64052 11.48320 27461 ft 446 kts 69°
2026-04-15 14:09 47.64937 11.52741 26328 ft 449 kts 71°
2026-04-15 14:09 47.65810 11.57207 25166 ft 453 kts 71°
2026-04-15 14:10 47.66683 11.61675 24392 ft 448 kts 71°
2026-04-15 14:10 47.67557 11.66088 23556 ft 444 kts 71°
2026-04-15 14:10 47.68438 11.70457 22708 ft 439 kts 71°
2026-04-15 14:10 47.69314 11.74768 21934 ft 434 kts 72°
2026-04-15 14:11 47.70182 11.79026 21161 ft 429 kts 72°
2026-04-15 14:11 47.71028 11.83269 20404 ft 425 kts 72°
2026-04-15 14:11 47.71823 11.87419 19650 ft 423 kts 73°
2026-04-15 14:11 47.72607 11.91625 18882 ft 421 kts 74°
2026-04-15 14:12 47.73366 11.95828 18076 ft 421 kts 76°
2026-04-15 14:12 47.74029 12.00053 17332 ft 418 kts 77°
2026-04-15 14:12 47.74611 12.04264 16634 ft 415 kts 78°
2026-04-15 14:12 47.75159 12.08461 15958 ft 412 kts 79°
2026-04-15 14:13 47.75698 12.12632 15298 ft 410 kts 79°
2026-04-15 14:13 47.76242 12.16776 14663 ft 407 kts 79°
2026-04-15 14:13 47.76795 12.20889 14010 ft 405 kts 78°
2026-04-15 14:13 47.77357 12.24972 13317 ft 401 kts 78°
2026-04-15 14:14 47.77916 12.29008 12655 ft 397 kts 78°
2026-04-15 14:14 47.78470 12.33003 11969 ft 392 kts 79°
2026-04-15 14:14 47.79019 12.36959 11352 ft 387 kts 79°
2026-04-15 14:14 47.79547 12.40786 11199 ft 368 kts 79°
2026-04-15 14:15 47.80042 12.44386 11076 ft 352 kts 79°
2026-04-15 14:15 47.80521 12.47881 10955 ft 337 kts 79°
2026-04-15 14:15 47.80974 12.51236 10835 ft 324 kts 79°
2026-04-15 14:15 47.81409 12.54466 10714 ft 313 kts 79°
2026-04-15 14:16 47.81884 12.57584 10562 ft 304 kts 73°
2026-04-15 14:16 47.82723 12.60443 10333 ft 300 kts 60°
2026-04-15 14:16 47.83919 12.62912 10187 ft 298 kts 48°
2026-04-15 14:16 47.85321 12.65153 10032 ft 292 kts 47°
2026-04-15 14:17 47.86689 12.67346 9719 ft 290 kts 47°
2026-04-15 14:17 47.88065 12.69562 9291 ft 292 kts 47°
2026-04-15 14:17 47.89448 12.71791 8886 ft 293 kts 47°
2026-04-15 14:17 47.90835 12.74027 8483 ft 294 kts 47°
2026-04-15 14:18 47.92216 12.76259 8073 ft 288 kts 47°
2026-04-15 14:18 47.93549 12.78416 7689 ft 278 kts 48°
2026-04-15 14:18 47.94838 12.80499 7313 ft 268 kts 48°
2026-04-15 14:18 47.96095 12.82531 6783 ft 266 kts 49°
2026-04-15 14:19 47.97043 12.84825 6248 ft 258 kts 77°
2026-04-15 14:19 47.97019 12.87422 5743 ft 250 kts 109°
2026-04-15 14:19 47.96079 12.89560 5117 ft 251 kts 141°
2026-04-15 14:19 47.94539 12.90777 4570 ft 250 kts 155°
2026-04-15 14:20 47.92952 12.91764 4189 ft 242 kts 155°
2026-04-15 14:20 47.91430 12.92722 3864 ft 233 kts 155°
2026-04-15 14:20 47.89980 12.93643 3549 ft 224 kts 155°
2026-04-15 14:20 47.88610 12.94513 3265 ft 206 kts 155°
2026-04-15 14:21 47.87355 12.95309 3009 ft 186 kts 155°
2026-04-15 14:21 47.86216 12.96031 2789 ft 165 kts 155°
2026-04-15 14:21 47.85216 12.96666 2540 ft 151 kts 155°
2026-04-15 14:21 47.84270 12.97267 2319 ft 146 kts 155°
2026-04-15 14:22 47.83345 12.97853 2110 ft 144 kts 156°
2026-04-15 14:22 47.82424 12.98438 1902 ft 144 kts 156°
2026-04-15 14:22 47.81514 12.99014 1712 ft 144 kts 157°
2026-04-15 14:22 47.80595 12.99597 1525 ft 143 kts 157°
2026-04-15 14:23 47.79691 13.00173 1424 ft 130 kts 156°
2026-04-15 14:23 47.79015 13.00594 1420 ft 80 kts 157°
2026-04-15 14:23 47.78679 13.00805 1420 ft 29 kts 157°
2026-04-15 14:23 47.78571 13.00845 1419 ft 13 kts 206°
2026-04-15 14:24 47.78532 13.00727 1420 ft 12 kts 249°
2026-04-15 14:24 47.78547 13.00636 1420 ft 11 kts 313°
2026-04-15 14:24 47.78620 13.00578 1420 ft 13 kts 337°
2026-04-15 14:24 47.78713 13.00519 1423 ft 16 kts 336°
2026-04-15 14:25 47.78825 13.00448 1421 ft 19 kts 337°
2026-04-15 14:25 47.78914 13.00391 1420 ft 10 kts 336°
2026-04-15 14:25 47.78951 13.00334 1421 ft 8 kts 282°
2026-04-15 14:25 47.78955 13.00253 1422 ft 9 kts 274°
2026-04-15 14:26 47.78970 13.00157 1422 ft 10 kts 308°
2026-04-15 14:26 47.79013 13.00114 1422 ft 6 kts 308°
2026-04-15 14:26 47.79023 13.00046 1422 ft 4 kts 282°
2026-04-15 14:26 47.79028 13.00012 1422 ft 2 kts 282°
2026-04-15 14:27 47.79031 12.99989 1422 ft 0 kts 281°